Regional Weather Roundup
Issued by NWS Newport/Morehead, NC

Current Version | Previous Version | Graphics & Text | Print | Product List | Glossary Off
Versions: 1 2 3 4 5 6 7 8 9 10 11 12 13 14 15 16 17 18 19 20 21 22 23 24 25 26 27 28 29 30 31 32 33 34 35 36 37 38 39 40 41 42 43 44 45 46 47 48 49 50
000 ASUS42 KMHX 280913 RWRMHX WEATHER ROUNDUP FOR EASTERN NORTH CAROLINA NATIONAL WEATHER SERVICE NEWPORT/MOREHEAD CITY NC 500 AM EDT TUE JUL 28 2015 NOTE: "FAIR" INDICATES FEW OR NO CLOUDS BELOW 12,000 FEET WITH NO SIGNIFICANT WEATHER AND/OR OBSTRUCTIONS TO VISIBILITY NCZ015>017-031-032-045>047-102-103-281000- NORTH COAST CITY SKY/WX TMP DP RH WIND PRES REMARKS EDENTON CLEAR 71 69 94 CALM 30.00F ELIZABETH CITY CLEAR 71 70 96 CALM 30.00F KITTY HAWK SUNNY 73 68 84 CALM 29.99F MANTEO CLEAR 70 68 95 CALM 30.00F $$ NCZ045>047-081-094-103-104-281000- CENTRAL COAST CITY SKY/WX TMP DP RH WIND PRES REMARKS FRISCO CLEAR 72 69 90 NE3 30.00S SWANQUARTER N/A 72 N/A N/A NE2 29.97S $$ NCZ095-097-098-100-101-281000- SOUTHERN COAST CITY SKY/WX TMP DP RH WIND PRES REMARKS BEAUFORT CLEAR 73 71 93 NE5 29.98F CEDAR ISLAND N/A 79 N/A N/A E6 30.03S JACKSONVILLE CLEAR 73 70 90 CALM 29.98S PINEY ISLAND SUNNY N/A N/A N/A E5 29.99S WILMINGTON PTCLDY 71 70 96 NE5 29.96F $$ NCZ011>013-027>030-043-044-078>080-089-090>093-098-281000- COASTAL PLAIN CITY SKY/WX TMP DP RH WIND PRES REMARKS AHOSKIE CLEAR 68 67 98 CALM 30.00F CLINTON CLEAR 72 72 100 CALM 29.98F ELIZABETHTOWN CLEAR 72 72 100 CALM 29.98F FOG GOLDSBORO CLEAR 72 71 98 E2 29.97F GREENVILLE CLEAR 70 70 100 CALM 30.01F HAVELOCK CLEAR 72 70 93 CALM 30.00S KENANSVILLE CLEAR 69 68 96 CALM 30.00S KINSTON CLEAR 71 70 97 CALM 30.00F NEW BERN MOCLDY 71 68 90 CALM 30.00S FOG RICHLANDS CLEAR 70 64 83 N5 29.99S ROCKY MOUNT CLEAR 70 69 97 CALM 30.00S FOG WASHINGTON CLEAR 69 68 96 CALM 30.00F WHITEVILLE CLEAR 72 70 96 CALM 29.97S FOG $$ AMZ130-135-150-152-154-156-158-170-250-252-270-ANZ085-086-088-633-658-670-281000- MARINE OBSERVATIONS STATION/POSITION TIME TEMP WIND PRES WAVE SWELL AIR SEA DIR/SP/G HT/PER HT/PER (UTC) (F) (DEG/KT/KT) (MB) (FT/S) (FT/S) CHESAPEAKE LIGHT 0900 79 210/ 8/ 9 1016.5 64 E VA BEACH 0850 79 80 180/ 4/ 6 1015.8 2/11 2/11 DUCK 0800 78 76 170/ 4/ 5 1015.3 2 E DUCK 0811 80 N/A 2/11 2/11 OREGON INLET 0800 77 81 110/ 3/ 3 1016.0 13E OREGON INLT 0900 79 N/A 2/11 2/11 HATTERAS CG 0800 78 82 40/ 2/ 3 1015.5 DIAMOND BUOY NOT AVBL CAPE LOOKOUT 0900 80 80/ 8/ 9 1014.9 BEAUFORT LAB 0800 76 81 40/ 4/ 5 1014.6 30 SE NEW RVR IN NOT AVBL 27 SE WRIGHTSVLE 0800 78 81 90/ 8/ 10 N/A 5 SE WRIGHTSVLE 0808 81 81 80/ 8/ 10 1014.6 225 S CAPE HAT 0850 83 82 250/ 16/ 17 1013.8 5/ 7 2/11 41 SE CHARLESTON 0850 82 84 20/ 8/ 10 1012.8 3/ 7 3/ 7 $$

USA.gov is the U.S. government's official web portal to all federal, state and local government web resources and services.